QPF
0.00 0.00 0.00 0.00 0.00 0.00 0.00 0.00 0.00 0.00 0.00 0.00 0.00 0.00 0.00 0.00 0.01 0.02 0.00 0.00 0.00 0.00 0.00 0.00 0.00 0.01 0.01 0.01 0.02 0.01 0.01 0.01 0.01 0.01 0.01 0.01 0.01 0.01 0.01 0.03 0.04 0.03 0.02 0.02 0.02 0.03 0.03 0.03 0.04
0.00 0.00 0.00 0.00 0.00 0.00 0.00 0.00 0.00 0.00 0.00 0.00 0.00 0.00 0.00 0.00 0.00 0.00 0.00 0.00 0.00 0.00 0.00 0.00 0.00 0.00 0.00 0.01 0.01 0.01 0.01 0.01 0.01 0.01 0.01 0.01 0.01 0.01 0.02 0.03 0.04 0.03 0.03 0.02 0.02 0.03 0.03 0.02 0.03
0.00 0.00 0.00 0.00 0.00 0.00 0.00 0.00 0.00 0.00 0.00 0.00 0.00 0.00 0.00 0.00 0.00 0.00 0.00 0.00 0.00 0.00 0.00 0.00 0.00 0.00 0.00 0.01 0.01 0.01 0.01 0.00 0.00 0.00 0.01 0.01 0.01 0.02 0.02 0.03 0.03 0.03 0.03 0.02 0.02 0.02 0.03 0.03 0.03
0.00 0.00 0.00 0.00 0.00 0.00 0.00 0.00 0.00 0.00 0.00 0.00 0.00 0.00 0.00 0.00 0.00 0.00 0.00 0.00 0.00 0.00 0.00 0.00 0.00 0.00 0.00 0.00 0.00 0.01 0.01 0.01 0.01 0.01 0.01 0.01 0.01 0.02 0.03 0.03 0.03 0.03 0.03 0.02 0.02 0.02 0.02 0.03 0.03
0.00 0.00 0.00 0.00 0.00 0.00 0.00 0.00 0.00 0.00 0.00 0.00 0.00 0.00 0.00 0.00 0.00 0.00 0.00 0.00 0.00 0.00 0.00 0.00 0.00 0.00 0.00 0.00 0.00 0.01 0.00 0.00 0.01 0.01 0.01 0.02 0.01 0.02 0.03 0.04 0.03 0.03 0.03 0.03 0.02 0.03 0.04 0.04 0.04
0.00 0.00 0.00 0.00 0.00 0.00 0.00 0.00 0.00 0.00 0.00 0.00 0.00 0.00 0.01 0.00 0.00 0.00 0.00 0.00 0.00 0.00 0.00 0.00 0.00 0.00 0.00 0.00 0.00 0.00 0.00 0.01 0.01 0.01 0.01 0.02 0.02 0.02 0.02 0.03 0.03 0.03 0.04 0.03 0.02 0.03 0.05 0.07 0.07
0.00 0.00 0.00 0.00 0.00 0.00 0.00 0.00 0.00 0.00 0.00 0.00 0.00 0.00 0.00 0.00 0.00 0.00 0.00 0.00 0.00 0.00 0.00 0.00 0.01 0.01 0.00 0.00 0.00 0.00 0.00 0.01 0.01 0.01 0.01 0.02 0.03 0.02 0.02 0.03 0.03 0.03 0.03 0.03 0.02 0.02 0.03 0.05 0.07
0.00 0.00 0.00 0.00 0.00 0.00 0.00 0.01 0.00 0.00 0.00 0.00 0.00 0.00 0.00 0.00 0.00 0.00 0.00 0.00 0.00 0.00 0.00 0.01 0.01 0.01 0.01 0.01 0.01 0.00 0.01 0.01 0.01 0.01 0.01 0.02 0.03 0.02 0.02 0.03 0.03 0.03 0.03 0.03 0.02 0.02 0.04 0.06 0.07
0.00 0.00 0.00 0.00 0.00 0.00 0.00 0.00 0.00 0.00 0.00 0.00 0.00 0.00 0.00 0.00 0.00 0.00 0.00 0.01 0.01 0.00 0.01 0.02 0.03 0.03 0.03 0.02 0.01 0.01 0.02 0.02 0.02 0.03 0.02 0.04 0.05 0.04 0.02 0.02 0.02 0.03 0.02 0.03 0.03 0.03 0.03 0.03 0.04
0.00 0.00 0.00 0.00 0.00 0.00 0.00 0.00 0.00 0.00 0.00 0.00 0.00 0.00 0.00 0.00 0.01 0.01 0.01 0.01 0.01 0.01 0.02 0.02 0.03 0.04 0.05 0.03 0.03 0.03 0.03 0.03 0.03 0.04 0.03 0.04 0.05 0.05 0.02 0.02 0.03 0.03 0.02 0.02 0.03 0.03 0.02 0.02 0.03
0.00 0.00 0.00 0.00 0.00 0.00 0.00 0.00 0.01 0.01 0.00 0.00 0.00 0.00 0.00 0.00 0.01 0.01 0.01 0.01 0.01 0.02 0.03 0.03 0.04 0.03 0.03 0.04 0.03 0.03 0.04 0.04 0.04 0.03 0.03 0.03 0.02 0.02 0.02 0.04 0.05 0.05 0.03 0.04 0.02 0.02 0.03 0.02 0.04
0.00 0.00 0.00 0.00 0.00 0.00 0.00 0.00 0.00 0.00 0.00 0.00 0.00 0.00 0.00 0.00 0.01 0.01 0.02 0.02 0.02 0.03 0.04 0.04 0.04 0.03 0.03 0.04 0.03 0.02 0.02 0.02 0.02 0.02 0.02 0.02 0.02 0.02 0.02 0.03 0.05 0.05 0.05 0.06 0.03 0.04 0.02 0.02 0.02
0.00 0.00 0.00 0.00 0.00 0.00 0.00 0.00 0.00 0.00 0.00 0.00 0.00 0.00 0.00 0.00 0.00 0.01 0.03 0.03 0.02 0.03 0.03 0.03 0.04 0.03 0.04 0.04 0.03 0.02 0.01 0.01 0.01 0.02 0.02 0.01 0.01 0.01 0.02 0.03 0.04 0.04 0.04 0.04 0.03 0.03 0.02 0.03 0.03
0.00 0.00 0.00 0.00 0.00 0.00 0.00 0.00 0.00 0.00 0.00 0.00 0.00 0.00 0.00 0.01 0.02 0.02 0.03 0.05 0.03 0.03 0.04 0.04 0.04 0.04 0.04 0.03 0.02 0.01 0.01 0.02 0.01 0.01 0.01 0.01 0.01 0.02 0.02 0.03 0.03 0.03 0.04 0.03 0.03 0.03 0.03 0.03 0.03
0.00 0.00 0.00 0.00 0.00 0.00 0.00 0.00 0.00 0.00 0.00 0.00 0.00 0.00 0.00 0.01 0.02 0.03 0.04 0.04 0.03 0.03 0.05 0.05 0.04 0.04 0.05 0.04 0.03 0.01 0.01 0.01 0.02 0.02 0.01 0.01 0.01 0.02 0.03 0.03 0.03 0.04 0.04 0.05 0.05 0.05 0.03 0.03 0.04
0.00 0.00 0.00 0.00 0.00 0.00 0.00 0.00 0.00 0.00 0.00 0.00 0.00 0.00 0.00 0.01 0.02 0.03 0.03 0.04 0.05 0.06 0.07 0.06 0.04 0.04 0.04 0.04 0.03 0.02 0.01 0.02 0.03 0.03 0.02 0.02 0.03 0.04 0.04 0.04 0.04 0.04 0.04 0.05 0.07 0.06 0.06 0.06 0.06
0.00 0.00 0.00 0.00 0.00 0.00 0.00 0.00 0.00 0.00 0.00 0.00 0.00 0.00 0.00 0.01 0.02 0.03 0.03 0.06 0.08 0.08 0.08 0.07 0.05 0.04 0.04 0.04 0.04 0.04 0.03 0.03 0.04 0.05 0.05 0.04 0.05 0.06 0.06 0.06 0.05 0.05 0.06 0.06 0.05 0.04 0.05 0.07 0.08
0.00 0.00 0.00 0.00 0.00 0.00 0.00 0.00 0.00 0.00 0.00 0.00 0.00 0.00 0.00 0.01 0.02 0.03 0.04 0.07 0.08 0.08 0.09 0.10 0.08 0.05 0.06 0.06 0.07 0.07 0.08 0.07 0.06 0.06 0.08 0.09 0.08 0.05 0.07 0.06 0.05 0.04 0.07 0.07 0.06 0.07 0.07 0.07 0.09
0.00 0.00 0.00 0.00 0.00 0.00 0.00 0.00 0.00 0.00 0.00 0.00 0.00 0.00 0.00 0.02 0.05 0.05 0.04 0.05 0.04 0.05 0.09 0.12 0.11 0.07 0.06 0.06 0.06 0.06 0.06 0.05 0.05 0.05 0.04 0.06 0.07 0.05 0.07 0.07 0.07 0.06 0.07 0.08 0.06 0.06 0.06 0.05 0.07
0.00 0.00 0.00 0.00 0.00 0.00 0.00 0.00 0.00 0.00 0.00 0.00 0.00 0.00 0.00 0.01 0.04 0.05 0.02 0.02 0.02 0.03 0.07 0.11 0.12 0.11 0.09 0.10 0.12 0.09 0.07 0.05 0.05 0.05 0.05 0.06 0.07 0.08 0.08 0.09 0.08 0.08 0.09 0.10 0.10 0.08 0.06 0.05 0.05
0.00 0.00 0.00 0.00 0.00 0.00 0.00 0.00 0.00 0.00 0.00 0.00 0.00 0.00 0.00 0.01 0.02 0.02 0.02 0.01 0.01 0.02 0.03 0.07 0.14 0.14 0.12 0.14 0.18 0.18 0.14 0.11 0.08 0.07 0.05 0.06 0.07 0.08 0.08 0.06 0.07 0.08 0.08 0.09 0.10 0.10 0.09 0.08 0.05
0.00 0.00 0.00 0.00 0.00 0.00 0.00 0.00 0.00 0.00 0.00 0.00 0.00 0.00 0.00 0.00 0.00 0.01 0.01 0.01 0.01 0.01 0.03 0.07 0.12 0.15 0.14 0.12 0.13 0.17 0.17 0.15 0.12 0.11 0.10 0.09 0.08 0.07 0.06 0.06 0.07 0.07 0.06 0.08 0.07 0.07 0.09 0.09 0.07
0.00 0.00 0.00 0.00 0.00 0.00 0.00 0.00 0.00 0.00 0.00 0.01 0.01 0.00 0.00 0.00 0.00 0.00 0.01 0.01 0.01 0.01 0.03 0.06 0.09 0.12 0.11 0.09 0.10 0.18 0.22 0.16 0.13 0.14 0.16 0.13 0.11 0.10 0.07 0.07 0.06 0.06 0.06 0.07 0.07 0.08 0.07 0.07 0.07
0.00 0.00 0.00 0.00 0.00 0.00 0.00 0.00 0.00 0.00 0.00 0.00 0.01 0.01 0.01 0.01 0.01 0.01 0.01 0.01 0.01 0.01 0.02 0.04 0.05 0.06 0.08 0.10 0.13 0.16 0.21 0.21 0.15 0.14 0.14 0.13 0.13 0.12 0.09 0.07 0.08 0.06 0.06 0.07 0.08 0.08 0.07 0.08 0.09
0.00 0.00 0.00 0.00 0.00 0.00 0.00 0.00 0.00 0.00 0.00 0.00 0.00 0.01 0.00 0.00 0.00 0.00 0.01 0.01 0.01 0.01 0.01 0.02 0.03 0.04 0.06 0.08 0.13 0.15 0.16 0.20 0.19 0.15 0.13 0.11 0.10 0.10 0.09 0.07 0.07 0.07 0.07 0.06 0.08 0.09 0.07 0.07 0.08
0.00 0.00 0.00 0.00 0.00 0.00 0.00 0.00 0.00 0.00 0.00 0.00 0.00 0.01 0.01 0.02 0.02 0.01 0.01 0.01 0.01 0.02 0.02 0.03 0.03 0.04 0.06 0.09 0.15 0.16 0.14 0.13 0.12 0.14 0.12 0.12 0.08 0.07 0.08 0.07 0.07 0.06 0.06 0.05 0.07 0.07 0.07 0.08 0.08
0.00 0.00 0.00 0.00 0.00 0.00 0.00 0.00 0.00 0.00 0.00 0.00 0.00 0.01 0.02 0.02 0.02 0.01 0.01 0.01 0.02 0.02 0.02 0.03 0.03 0.04 0.06 0.07 0.13 0.19 0.15 0.10 0.10 0.11 0.10 0.10 0.08 0.07 0.07 0.07 0.07 0.06 0.06 0.07 0.06 0.07 0.07 0.07 0.07
0.00 0.00 0.00 0.00 0.00 0.00 0.00 0.00 0.00 0.00 0.00 0.00 0.00 0.01 0.01 0.01 0.01 0.02 0.01 0.02 0.04 0.04 0.03 0.03 0.03 0.04 0.05 0.05 0.08 0.16 0.20 0.15 0.12 0.09 0.08 0.08 0.09 0.08 0.08 0.08 0.09 0.08 0.06 0.07 0.07 0.06 0.07 0.08 0.09
0.00 0.00 0.00 0.00 0.00 0.00 0.00 0.00 0.00 0.00 0.00 0.00 0.00 0.00 0.00 0.00 0.00 0.01 0.01 0.01 0.04 0.06 0.05 0.04 0.03 0.05 0.06 0.05 0.06 0.10 0.15 0.15 0.12 0.07 0.06 0.07 0.10 0.11 0.12 0.12 0.11 0.09 0.07 0.06 0.06 0.05 0.05 0.08 0.08
0.00 0.00 0.00 0.00 0.00 0.00 0.00 0.00 0.00 0.00 0.00 0.00 0.00 0.00 0.00 0.00 0.00 0.01 0.01 0.01 0.02 0.03 0.04 0.03 0.03 0.03 0.03 0.04 0.04 0.05 0.08 0.11 0.10 0.07 0.07 0.08 0.09 0.12 0.13 0.14 0.13 0.12 0.08 0.07 0.06 0.06 0.06 0.07 0.07
MSLP
1009.87 1010.21 1010.54 1010.79 1010.88 1010.81 1010.60 1010.31 1010.03 1009.83 1009.78 1009.87 1010.09 1010.37 1010.62 1010.80 1010.85 1010.79 1010.68 1010.59 1010.60 1010.77 1011.13 1011.65 1012.27 1012.89 1013.44 1013.84 1014.08 1014.17 1014.17 1014.15 1014.18 1014.29 1014.51 1014.79 1015.10 1015.37 1015.58 1015.69 1015.73 1015.74 1015.75 1015.81 1015.94 1016.14 1016.38 1016.63 1016.83
1009.90 1010.29 1010.64 1010.87 1010.93 1010.80 1010.51 1010.14 1009.77 1009.50 1009.39 1009.44 1009.63 1009.89 1010.15 1010.33 1010.41 1010.37 1010.29 1010.24 1010.30 1010.54 1010.98 1011.58 1012.30 1013.02 1013.65 1014.13 1014.42 1014.55 1014.57 1014.54 1014.55 1014.64 1014.81 1015.06 1015.33 1015.57 1015.75 1015.84 1015.86 1015.85 1015.86 1015.93 1016.08 1016.30 1016.58 1016.85 1017.07
1010.04 1010.45 1010.79 1010.98 1010.97 1010.76 1010.39 1009.94 1009.52 1009.20 1009.05 1009.09 1009.27 1009.54 1009.81 1010.01 1010.10 1010.10 1010.04 1010.02 1010.13 1010.41 1010.90 1011.57 1012.35 1013.14 1013.84 1014.39 1014.74 1014.92 1014.97 1014.96 1014.97 1015.04 1015.19 1015.40 1015.63 1015.84 1015.98 1016.05 1016.06 1016.05 1016.07 1016.15 1016.32 1016.57 1016.86 1017.14 1017.37
1010.29 1010.68 1010.97 1011.09 1011.00 1010.70 1010.25 1009.74 1009.27 1008.93 1008.77 1008.82 1009.02 1009.31 1009.61 1009.84 1009.96 1009.99 1009.96 1009.97 1010.09 1010.40 1010.92 1011.61 1012.43 1013.26 1014.01 1014.60 1015.01 1015.23 1015.31 1015.33 1015.35 1015.42 1015.56 1015.75 1015.96 1016.15 1016.28 1016.34 1016.36 1016.37 1016.40 1016.51 1016.70 1016.95 1017.24 1017.51 1017.72
1010.59 1010.94 1011.16 1011.18 1010.99 1010.60 1010.08 1009.52 1009.03 1008.69 1008.55 1008.63 1008.87 1009.20 1009.54 1009.81 1009.97 1010.03 1010.03 1010.06 1010.20 1010.52 1011.03 1011.73 1012.54 1013.37 1014.12 1014.73 1015.16 1015.42 1015.54 1015.59 1015.64 1015.73 1015.88 1016.07 1016.28 1016.47 1016.61 1016.69 1016.73 1016.77 1016.84 1016.97 1017.17 1017.42 1017.69 1017.92 1018.09
1010.90 1011.17 1011.29 1011.21 1010.91 1010.45 1009.87 1009.29 1008.80 1008.48 1008.38 1008.50 1008.79 1009.17 1009.55 1009.87 1010.08 1010.18 1010.22 1010.27 1010.42 1010.73 1011.22 1011.88 1012.65 1013.44 1014.16 1014.76 1015.19 1015.46 1015.62 1015.70 1015.79 1015.91 1016.08 1016.30 1016.53 1016.74 1016.91 1017.03 1017.12 1017.20 1017.30 1017.46 1017.66 1017.90 1018.13 1018.32 1018.42
1011.14 1011.33 1011.34 1011.15 1010.77 1010.23 1009.62 1009.04 1008.57 1008.29 1008.24 1008.41 1008.75 1009.18 1009.61 1009.98 1010.23 1010.38 1010.45 1010.53 1010.69 1010.99 1011.44 1012.04 1012.74 1013.46 1014.13 1014.68 1015.09 1015.36 1015.53 1015.65 1015.78 1015.94 1016.15 1016.40 1016.67 1016.92 1017.13 1017.30 1017.43 1017.55 1017.69 1017.86 1018.07 1018.28 1018.47 1018.60 1018.65
1011.29 1011.39 1011.29 1011.00 1010.54 1009.96 1009.34 1008.77 1008.34 1008.12 1008.12 1008.34 1008.72 1009.19 1009.66 1010.06 1010.36 1010.55 1010.67 1010.79 1010.96 1011.24 1011.65 1012.19 1012.81 1013.45 1014.03 1014.52 1014.89 1015.15 1015.33 1015.48 1015.64 1015.84 1016.10 1016.39 1016.70 1016.99 1017.24 1017.45 1017.62 1017.78 1017.94 1018.12 1018.31 1018.49 1018.64 1018.72 1018.72
1011.33 1011.33 1011.14 1010.77 1010.26 1009.66 1009.04 1008.51 1008.12 1007.94 1007.99 1008.24 1008.65 1009.15 1009.64 1010.08 1010.42 1010.66 1010.83 1010.98 1011.17 1011.45 1011.84 1012.32 1012.86 1013.41 1013.91 1014.33 1014.66 1014.89 1015.07 1015.24 1015.44 1015.68 1015.97 1016.30 1016.64 1016.96 1017.24 1017.47 1017.67 1017.84 1018.01 1018.18 1018.35 1018.50 1018.61 1018.66 1018.64
1011.28 1011.20 1010.93 1010.50 1009.95 1009.34 1008.75 1008.25 1007.90 1007.76 1007.84 1008.11 1008.53 1009.03 1009.54 1010.00 1010.37 1010.66 1010.89 1011.09 1011.32 1011.61 1011.98 1012.42 1012.90 1013.38 1013.81 1014.17 1014.45 1014.66 1014.84 1015.02 1015.24 1015.51 1015.83 1016.18 1016.54 1016.88 1017.17 1017.41 1017.60 1017.77 1017.93 1018.08 1018.23 1018.35 1018.44 1018.47 1018.45
1011.17 1011.02 1010.70 1010.23 1009.66 1009.06 1008.49 1008.02 1007.70 1007.59 1007.67 1007.94 1008.35 1008.83 1009.34 1009.81 1010.22 1010.56 1010.84 1011.11 1011.39 1011.72 1012.10 1012.52 1012.96 1013.39 1013.76 1014.07 1014.31 1014.51 1014.68 1014.87 1015.10 1015.39 1015.72 1016.09 1016.45 1016.79 1017.08 1017.31 1017.49 1017.64 1017.77 1017.90 1018.02 1018.13 1018.21 1018.24 1018.24
1011.05 1010.85 1010.48 1009.99 1009.42 1008.83 1008.28 1007.83 1007.54 1007.42 1007.50 1007.74 1008.12 1008.58 1009.06 1009.54 1009.98 1010.37 1010.72 1011.05 1011.40 1011.78 1012.19 1012.62 1013.05 1013.45 1013.79 1014.07 1014.29 1014.46 1014.63 1014.82 1015.05 1015.34 1015.68 1016.05 1016.41 1016.74 1017.01 1017.23 1017.39 1017.52 1017.62 1017.73 1017.83 1017.93 1018.01 1018.06 1018.09
1010.94 1010.71 1010.32 1009.81 1009.24 1008.67 1008.14 1007.71 1007.42 1007.29 1007.34 1007.54 1007.87 1008.29 1008.75 1009.23 1009.69 1010.12 1010.54 1010.95 1011.37 1011.81 1012.26 1012.72 1013.16 1013.56 1013.89 1014.15 1014.35 1014.52 1014.67 1014.86 1015.09 1015.37 1015.71 1016.06 1016.42 1016.74 1017.00 1017.20 1017.35 1017.46 1017.55 1017.64 1017.74 1017.83 1017.93 1018.01 1018.07
1010.88 1010.62 1010.21 1009.71 1009.15 1008.59 1008.08 1007.65 1007.35 1007.20 1007.21 1007.36 1007.64 1008.01 1008.45 1008.91 1009.38 1009.86 1010.33 1010.80 1011.29 1011.79 1012.30 1012.80 1013.26 1013.67 1014.01 1014.27 1014.47 1014.63 1014.78 1014.95 1015.17 1015.44 1015.76 1016.11 1016.45 1016.77 1017.03 1017.24 1017.39 1017.50 1017.59 1017.68 1017.77 1017.88 1017.99 1018.09 1018.19
1010.84 1010.56 1010.16 1009.67 1009.13 1008.60 1008.10 1007.67 1007.36 1007.18 1007.14 1007.23 1007.46 1007.78 1008.18 1008.62 1009.10 1009.59 1010.10 1010.63 1011.16 1011.72 1012.27 1012.81 1013.31 1013.75 1014.11 1014.38 1014.59 1014.75 1014.89 1015.04 1015.24 1015.49 1015.79 1016.12 1016.46 1016.78 1017.06 1017.29 1017.46 1017.60 1017.70 1017.81 1017.91 1018.03 1018.15 1018.29 1018.41
1010.81 1010.53 1010.14 1009.67 1009.17 1008.66 1008.18 1007.76 1007.43 1007.22 1007.13 1007.17 1007.34 1007.61 1007.96 1008.38 1008.85 1009.34 1009.87 1010.41 1010.98 1011.56 1012.15 1012.72 1013.26 1013.73 1014.12 1014.42 1014.65 1014.81 1014.94 1015.08 1015.25 1015.47 1015.74 1016.06 1016.39 1016.73 1017.03 1017.29 1017.51 1017.68 1017.82 1017.95 1018.08 1018.21 1018.36 1018.50 1018.65
1010.77 1010.49 1010.13 1009.71 1009.26 1008.79 1008.34 1007.93 1007.58 1007.33 1007.19 1007.18 1007.28 1007.49 1007.80 1008.18 1008.61 1009.09 1009.60 1010.14 1010.71 1011.30 1011.90 1012.50 1013.07 1013.58 1014.00 1014.35 1014.60 1014.78 1014.91 1015.04 1015.18 1015.37 1015.61 1015.90 1016.22 1016.57 1016.90 1017.20 1017.46 1017.68 1017.87 1018.04 1018.19 1018.35 1018.51 1018.66 1018.82
1010.69 1010.44 1010.13 1009.78 1009.39 1008.97 1008.56 1008.15 1007.79 1007.51 1007.31 1007.23 1007.27 1007.42 1007.67 1007.99 1008.38 1008.82 1009.30 1009.81 1010.35 1010.93 1011.53 1012.14 1012.73 1013.27 1013.75 1014.14 1014.43 1014.64 1014.79 1014.90 1015.02 1015.18 1015.38 1015.64 1015.95 1016.29 1016.64 1016.98 1017.29 1017.56 1017.80 1018.00 1018.19 1018.37 1018.54 1018.70 1018.86
1010.57 1010.38 1010.15 1009.88 1009.57 1009.22 1008.84 1008.44 1008.06 1007.73 1007.47 1007.32 1007.28 1007.35 1007.53 1007.79 1008.13 1008.52 1008.94 1009.41 1009.91 1010.46 1011.04 1011.65 1012.25 1012.84 1013.36 1013.80 1014.15 1014.40 1014.58 1014.70 1014.80 1014.92 1015.09 1015.31 1015.59 1015.92 1016.28 1016.65 1016.99 1017.31 1017.59 1017.83 1018.04 1018.24 1018.42 1018.59 1018.76
1010.43 1010.32 1010.19 1010.03 1009.81 1009.53 1009.19 1008.79 1008.38 1007.98 1007.64 1007.40 1007.27 1007.26 1007.36 1007.56 1007.83 1008.17 1008.54 1008.96 1009.42 1009.92 1010.48 1011.07 1011.69 1012.29 1012.86 1013.36 1013.77 1014.08 1014.29 1014.43 1014.53 1014.63 1014.77 1014.95 1015.20 1015.51 1015.86 1016.23 1016.60 1016.95 1017.26 1017.53 1017.77 1017.98 1018.18 1018.36 1018.54
1010.28 1010.28 1010.28 1010.23 1010.12 1009.90 1009.59 1009.18 1008.71 1008.24 1007.80 1007.45 1007.22 1007.11 1007.14 1007.27 1007.50 1007.78 1008.11 1008.49 1008.90 1009.37 1009.89 1010.46 1011.07 1011.70 1012.30 1012.85 1013.31 1013.68 1013.94 1014.11 1014.23 1014.32 1014.43 1014.59 1014.81 1015.09 1015.43 1015.80 1016.18 1016.54 1016.88 1017.17 1017.43 1017.66 1017.87 1018.06 1018.24
1010.13 1010.27 1010.40 1010.48 1010.47 1010.32 1010.02 1009.58 1009.05 1008.48 1007.93 1007.46 1007.11 1006.92 1006.87 1006.95 1007.13 1007.38 1007.69 1008.04 1008.42 1008.85 1009.34 1009.88 1010.47 1011.09 1011.71 1012.29 1012.80 1013.21 1013.52 1013.74 1013.88 1013.98 1014.09 1014.23 1014.42 1014.69 1015.01 1015.37 1015.75 1016.13 1016.48 1016.80 1017.08 1017.32 1017.54 1017.74 1017.94
1009.98 1010.26 1010.54 1010.75 1010.82 1010.73 1010.44 1009.96 1009.36 1008.68 1008.01 1007.42 1006.96 1006.68 1006.56 1006.60 1006.76 1007.01 1007.31 1007.65 1008.02 1008.43 1008.88 1009.38 1009.93 1010.53 1011.13 1011.71 1012.23 1012.68 1013.02 1013.27 1013.45 1013.58 1013.70 1013.84 1014.03 1014.28 1014.60 1014.96 1015.35 1015.74 1016.11 1016.45 1016.74 1017.00 1017.23 1017.44 1017.64
1009.82 1010.24 1010.64 1010.97 1011.13 1011.07 1010.79 1010.28 1009.59 1008.82 1008.04 1007.34 1006.79 1006.42 1006.26 1006.27 1006.43 1006.69 1007.01 1007.36 1007.73 1008.12 1008.53 1008.99 1009.49 1010.02 1010.57 1011.12 1011.62 1012.06 1012.42 1012.70 1012.91 1013.07 1013.21 1013.37 1013.58 1013.84 1014.16 1014.53 1014.93 1015.34 1015.73 1016.09 1016.41 1016.69 1016.93 1017.15 1017.35
1009.60 1010.14 1010.66 1011.08 1011.31 1011.29 1011.01 1010.47 1009.74 1008.89 1008.02 1007.24 1006.61 1006.19 1005.99 1005.99 1006.16 1006.44 1006.79 1007.17 1007.55 1007.93 1008.32 1008.72 1009.14 1009.59 1010.06 1010.53 1010.97 1011.38 1011.72 1012.00 1012.23 1012.41 1012.59 1012.78 1013.01 1013.30 1013.64 1014.03 1014.45 1014.88 1015.30 1015.69 1016.03 1016.33 1016.59 1016.82 1017.03
1009.31 1009.93 1010.53 1011.01 1011.29 1011.31 1011.05 1010.51 1009.76 1008.87 1007.97 1007.14 1006.47 1006.01 1005.79 1005.78 1005.97 1006.28 1006.66 1007.07 1007.47 1007.85 1008.21 1008.55 1008.90 1009.25 1009.61 1009.97 1010.32 1010.65 1010.94 1011.20 1011.42 1011.62 1011.82 1012.04 1012.31 1012.62 1012.99 1013.41 1013.86 1014.31 1014.76 1015.18 1015.55 1015.88 1016.17 1016.42 1016.64
1008.92 1009.58 1010.21 1010.73 1011.05 1011.10 1010.87 1010.37 1009.64 1008.78 1007.88 1007.05 1006.37 1005.91 1005.68 1005.67 1005.87 1006.20 1006.61 1007.05 1007.47 1007.85 1008.18 1008.47 1008.74 1008.98 1009.22 1009.46 1009.69 1009.92 1010.13 1010.33 1010.53 1010.72 1010.93 1011.18 1011.47 1011.81 1012.21 1012.65 1013.12 1013.60 1014.08 1014.52 1014.93 1015.29 1015.61 1015.89 1016.13
1008.43 1009.08 1009.71 1010.22 1010.56 1010.65 1010.47 1010.04 1009.40 1008.61 1007.78 1007.00 1006.35 1005.90 1005.67 1005.67 1005.86 1006.20 1006.62 1007.06 1007.50 1007.88 1008.20 1008.45 1008.65 1008.80 1008.93 1009.04 1009.15 1009.26 1009.37 1009.49 1009.63 1009.80 1010.00 1010.25 1010.55 1010.91 1011.32 1011.78 1012.27 1012.76 1013.26 1013.73 1014.16 1014.56 1014.92 1015.24 1015.53
1007.88 1008.46 1009.03 1009.51 1009.84 1009.97 1009.88 1009.55 1009.04 1008.38 1007.67 1006.99 1006.41 1006.00 1005.78 1005.77 1005.94 1006.25 1006.66 1007.10 1007.53 1007.91 1008.22 1008.46 1008.61 1008.70 1008.74 1008.75 1008.74 1008.73 1008.74 1008.77 1008.84 1008.95 1009.12 1009.35 1009.65 1010.00 1010.42 1010.87 1011.36 1011.86 1012.36 1012.85 1013.31 1013.75 1014.15 1014.53 1014.88
1007.30 1007.77 1008.25 1008.67 1008.98 1009.15 1009.14 1008.95 1008.60 1008.12 1007.58 1007.04 1006.56 1006.20 1006.00 1005.97 1006.10 1006.36 1006.73 1007.14 1007.55 1007.93 1008.24 1008.47 1008.61 1008.67 1008.66 1008.59 1008.49 1008.39 1008.30 1008.24 1008.22 1008.28 1008.40 1008.60 1008.87 1009.21 1009.60 1010.05 1010.52 1011.01 1011.51 1012.01 1012.49 1012.96 1013.41 1013.84 1014.26
Thickness
5818 5823 5824 5819 5812 5810 5801 5808 5815 5812 5815 5822 5821 5817 5811 5806 5800 5790 5810 5817 5812 5805 5796 5787 5783 5781 5779 5778 5776 5774 5773 5770 5768 5767 5766 5765 5763 5762 5761 5760 5759 5758 5757 5756 5755 5754 5752 5751 5749
5826 5825 5821 5818 5811 5797 5797 5812 5813 5815 5820 5823 5821 5817 5812 5808 5810 5807 5811 5812 5810 5805 5796 5789 5782 5779 5778 5776 5774 5773 5771 5769 5767 5765 5764 5763 5762 5761 5760 5759 5758 5757 5755 5754 5753 5752 5750 5749 5747
5826 5825 5819 5819 5810 5803 5802 5814 5817 5821 5826 5823 5817 5818 5812 5806 5807 5808 5813 5811 5808 5802 5796 5787 5781 5778 5776 5774 5772 5771 5769 5767 5765 5763 5762 5761 5760 5759 5758 5757 5756 5755 5754 5752 5751 5749 5748 5746 5745
5825 5822 5821 5815 5807 5813 5816 5820 5823 5821 5822 5823 5818 5810 5811 5811 5812 5814 5813 5811 5805 5799 5794 5785 5779 5776 5774 5772 5771 5769 5767 5765 5764 5762 5761 5760 5758 5757 5756 5756 5754 5753 5752 5750 5749 5747 5746 5744 5742
5825 5819 5812 5809 5810 5817 5824 5827 5827 5822 5819 5821 5819 5807 5802 5810 5816 5815 5811 5808 5803 5799 5794 5784 5778 5775 5772 5770 5769 5767 5766 5764 5762 5761 5759 5758 5757 5756 5755 5754 5752 5751 5750 5748 5746 5745 5743 5742 5740
5818 5818 5808 5805 5808 5818 5826 5831 5829 5824 5821 5821 5818 5808 5800 5809 5810 5809 5809 5807 5804 5800 5794 5783 5776 5773 5770 5769 5767 5765 5764 5762 5761 5759 5758 5756 5755 5754 5753 5752 5751 5749 5748 5746 5745 5743 5741 5740 5739
5814 5813 5810 5810 5808 5813 5822 5832 5828 5824 5819 5821 5823 5808 5801 5805 5809 5810 5808 5805 5803 5800 5794 5784 5778 5772 5768 5767 5765 5764 5762 5761 5759 5758 5757 5755 5754 5752 5751 5750 5749 5747 5746 5744 5743 5742 5740 5739 5737
5820 5815 5809 5811 5808 5812 5826 5832 5833 5828 5822 5830 5828 5811 5802 5804 5809 5808 5804 5801 5799 5797 5794 5786 5782 5776 5771 5767 5764 5762 5761 5759 5758 5757 5755 5754 5752 5751 5750 5749 5747 5746 5744 5743 5741 5740 5739 5737 5736
5817 5807 5807 5811 5812 5817 5827 5826 5831 5836 5828 5825 5827 5824 5820 5812 5808 5801 5796 5793 5792 5791 5791 5788 5784 5778 5774 5771 5765 5762 5760 5758 5757 5756 5754 5754 5755 5754 5751 5749 5745 5744 5743 5742 5740 5739 5738 5737 5736
5810 5805 5812 5820 5824 5824 5825 5825 5828 5827 5820 5817 5817 5817 5816 5809 5804 5797 5792 5789 5786 5785 5787 5786 5783 5778 5775 5773 5767 5765 5763 5760 5759 5759 5757 5756 5755 5754 5753 5746 5744 5743 5742 5740 5739 5739 5738 5739 5740
5810 5807 5815 5820 5826 5827 5825 5827 5832 5824 5817 5820 5816 5811 5808 5805 5801 5797 5794 5791 5788 5785 5784 5784 5780 5775 5774 5772 5769 5767 5765 5762 5760 5758 5757 5756 5755 5754 5752 5749 5745 5743 5742 5743 5740 5740 5743 5744 5742
5806 5810 5813 5819 5826 5825 5824 5826 5826 5825 5825 5832 5829 5819 5810 5804 5801 5799 5795 5792 5789 5785 5782 5782 5778 5773 5772 5770 5769 5767 5766 5763 5762 5758 5757 5755 5755 5754 5753 5750 5748 5747 5746 5744 5745 5743 5743 5743 5741
5802 5808 5815 5821 5824 5826 5824 5823 5822 5825 5831 5833 5828 5817 5810 5808 5804 5801 5799 5793 5788 5783 5780 5780 5776 5771 5768 5767 5767 5767 5765 5764 5762 5758 5756 5755 5755 5754 5752 5749 5748 5748 5747 5745 5744 5744 5742 5742 5740
5808 5809 5813 5819 5821 5823 5818 5821 5820 5823 5830 5826 5820 5814 5811 5808 5805 5801 5795 5791 5787 5783 5780 5778 5773 5770 5766 5764 5763 5764 5764 5761 5762 5758 5756 5754 5754 5753 5751 5748 5747 5748 5747 5747 5745 5744 5742 5742 5741
5808 5802 5808 5815 5818 5820 5817 5809 5815 5825 5826 5819 5816 5813 5809 5807 5804 5800 5796 5791 5788 5783 5780 5775 5772 5769 5766 5764 5763 5763 5762 5761 5760 5758 5755 5752 5753 5751 5750 5751 5748 5747 5746 5743 5743 5742 5743 5742 5741
5801 5796 5793 5809 5814 5816 5807 5800 5817 5825 5820 5814 5813 5811 5806 5803 5802 5800 5797 5792 5789 5784 5779 5774 5772 5768 5765 5763 5761 5762 5762 5760 5759 5756 5754 5751 5751 5749 5748 5750 5750 5746 5746 5745 5743 5744 5743 5742 5741
5789 5787 5791 5798 5810 5811 5806 5802 5814 5821 5817 5811 5810 5808 5803 5800 5799 5799 5797 5792 5788 5784 5779 5773 5771 5768 5765 5762 5760 5760 5758 5757 5756 5755 5754 5751 5749 5748 5747 5748 5748 5746 5745 5745 5745 5745 5744 5741 5740
5783 5789 5789 5790 5802 5803 5800 5802 5810 5814 5813 5810 5809 5806 5802 5798 5798 5798 5796 5792 5787 5783 5779 5773 5770 5767 5764 5761 5759 5757 5756 5755 5754 5753 5752 5750 5748 5747 5747 5747 5745 5746 5745 5743 5743 5742 5741 5741 5740
5790 5786 5783 5790 5800 5796 5795 5797 5803 5809 5808 5806 5805 5804 5800 5799 5800 5799 5795 5791 5787 5782 5777 5772 5768 5766 5762 5759 5757 5754 5753 5753 5752 5751 5750 5748 5747 5746 5745 5747 5745 5744 5744 5743 5743 5742 5740 5740 5740
5780 5777 5780 5785 5794 5792 5790 5793 5801 5805 5804 5805 5803 5801 5799 5797 5796 5794 5792 5790 5786 5781 5776 5772 5769 5766 5763 5761 5758 5756 5754 5752 5751 5750 5748 5746 5746 5745 5745 5744 5744 5744 5742 5741 5741 5740 5741 5741 5740
5773 5775 5778 5777 5785 5791 5786 5785 5793 5800 5804 5804 5804 5803 5801 5797 5793 5792 5790 5788 5785 5781 5777 5774 5770 5767 5764 5761 5757 5754 5751 5749 5748 5746 5746 5746 5745 5744 5744 5744 5744 5743 5743 5741 5739 5740 5737 5738 5740
5765 5780 5779 5775 5772 5778 5781 5773 5788 5796 5795 5798 5800 5801 5799 5798 5796 5794 5791 5787 5785 5782 5779 5775 5771 5768 5765 5762 5758 5754 5750 5748 5749 5747 5747 5745 5744 5744 5744 5743 5743 5743 5743 5741 5740 5741 5740 5737 5737
5774 5781 5777 5775 5773 5773 5778 5772 5786 5794 5789 5794 5799 5799 5799 5798 5796 5793 5791 5788 5786 5784 5780 5776 5770 5767 5764 5761 5758 5754 5751 5750 5749 5746 5744 5743 5744 5743 5744 5743 5743 5742 5743 5741 5740 5739 5739 5740 5739
5777 5772 5770 5772 5772 5755 5771 5769 5775 5791 5790 5795 5798 5797 5797 5796 5794 5791 5790 5787 5784 5783 5779 5775 5770 5766 5763 5760 5757 5753 5750 5747 5745 5743 5742 5741 5742 5743 5743 5743 5742 5742 5742 5741 5739 5739 5738 5739 5739
5769 5759 5747 5745 5748 5756 5775 5768 5777 5794 5798 5796 5794 5794 5794 5794 5791 5788 5786 5784 5781 5778 5776 5773 5768 5764 5762 5759 5756 5753 5750 5747 5743 5743 5742 5741 5741 5742 5742 5743 5742 5742 5741 5740 5740 5738 5739 5738 5737
5765 5766 5753 5743 5747 5761 5763 5764 5784 5796 5797 5796 5795 5794 5791 5789 5788 5786 5784 5782 5779 5776 5773 5771 5767 5763 5761 5758 5755 5752 5750 5747 5746 5744 5743 5742 5742 5743 5744 5742 5742 5741 5741 5740 5739 5739 5738 5738 5737
5764 5766 5783 5771 5764 5758 5765 5771 5784 5792 5790 5790 5789 5789 5787 5787 5786 5784 5783 5781 5778 5774 5771 5769 5766 5762 5760 5757 5754 5751 5749 5747 5746 5744 5743 5743 5742 5743 5743 5742 5741 5741 5740 5739 5737 5738 5737 5738 5737
5779 5776 5768 5761 5744 5743 5756 5761 5772 5779 5782 5784 5784 5784 5785 5785 5783 5781 5779 5777 5775 5773 5770 5767 5764 5761 5759 5756 5753 5750 5748 5746 5745 5743 5742 5742 5742 5742 5741 5742 5741 5739 5738 5737 5736 5737 5737 5736 5736
5761 5764 5766 5766 5767 5751 5747 5762 5789 5785 5785 5783 5783 5782 5782 5781 5780 5777 5775 5772 5771 5769 5766 5763 5761 5758 5756 5754 5751 5748 5746 5745 5744 5742 5741 5741 5740 5739 5739 5739 5739 5738 5737 5736 5735 5736 5736 5734 5734
5771 5769 5765 5752 5750 5758 5759 5766 5787 5788 5788 5785 5781 5779 5779 5777 5776 5774 5772 5769 5767 5764 5762 5759 5758 5756 5754 5752 5749 5746 5744 5743 5741 5740 5740 5739 5738 5738 5738 5737 5737 5736 5735 5734 5733 5733 5733 5732 5731